RH
57 50 44 37 35 35 31 29 27 26 25 25 25 24 23 24 25 28 33 37 35 31 27 28 32 30 27 28 30 32 32 28 31 51 53 24 7 10 16 17 16 13 10 12 13 12 16 20 22 22 25 29 35 39 48 66 79 89 97 97 97 98 96 91 88 89 84 87 91 86 83 73 71 75 73 68 59 58 60 54 49 46 46 46 50 54 59 64
39 34 32 31 31 30 29 28 27 26 26 25 24 22 22 21 22 24 29 33 33 32 27 26 27 24 26 27 29 38 45 47 60 73 42 4 11 16 11 17 19 16 14 15 11 9 16 21 22 23 24 32 35 35 55 77 82 92 97 97 97 94 92 84 82 88 80 81 87 85 83 70 67 74 69 66 64 60 60 57 51 51 49 48 53 58 62 65
32 30 29 28 28 28 28 27 27 26 25 25 24 23 23 23 23 24 28 31 33 35 29 25 24 21 22 25 33 48 62 70 70 59 27 6 15 15 14 21 19 18 15 13 10 6 13 18 18 22 24 32 34 34 59 79 81 90 93 95 97 86 86 84 83 87 80 80 84 85 84 72 71 73 66 67 66 58 59 58 55 57 54 53 58 60 64 66
28 27 26 26 26 25 25 25 24 24 23 23 23 23 24 23 25 25 26 29 29 34 31 25 23 19 20 25 34 54 74 73 52 33 22 14 14 13 17 21 21 18 12 12 11 6 10 12 13 17 22 32 31 33 58 72 75 87 89 89 91 85 88 88 84 82 81 80 80 86 84 75 75 72 69 68 64 63 59 52 53 57 53 54 60 60 63 67
25 24 24 24 24 23 23 23 22 23 22 22 22 22 23 24 26 26 28 29 28 31 30 27 23 17 21 24 31 59 70 51 32 26 22 14 13 14 15 18 22 19 13 17 12 6 9 9 13 17 23 31 27 32 55 64 68 83 85 80 81 84 88 87 82 80 80 79 82 85 77 73 73 70 74 70 63 66 59 48 49 51 48 50 55 56 59 64
24 23 22 22 22 22 21 21 21 21 21 21 21 21 22 24 26 28 29 30 30 30 29 27 23 16 22 27 37 61 57 29 20 24 22 15 13 13 15 18 22 21 17 18 11 8 11 12 18 23 27 26 24 43 63 62 66 78 80 75 75 77 83 86 83 83 80 79 85 82 71 73 75 73 76 72 68 65 53 46 45 46 45 44 47 50 54 60
23 21 21 20 20 20 20 20 20 20 20 19 20 19 20 22 25 28 29 30 31 30 28 26 22 16 24 39 54 66 56 33 20 21 23 17 13 12 15 19 20 20 16 14 11 10 13 17 23 26 28 22 25 54 68 63 66 76 81 76 73 77 86 90 88 90 85 81 83 75 71 77 76 73 71 68 69 60 48 45 43 44 43 41 43 44 47 54
23 21 19 19 19 18 18 18 18 19 19 18 19 18 18 20 23 27 28 32 33 29 27 25 22 18 26 47 63 63 56 40 23 21 23 16 14 14 15 17 17 16 13 12 9 10 15 21 24 24 27 21 30 59 64 61 66 72 80 79 77 86 93 90 89 92 89 89 89 79 75 79 76 71 66 65 63 51 46 46 43 43 43 42 43 42 43 49
24 22 19 18 17 17 17 17 18 17 18 18 18 17 18 18 21 26 28 32 35 29 27 26 20 20 35 59 69 56 38 25 21 23 21 18 16 14 13 11 12 13 11 11 10 12 18 23 25 23 25 19 30 56 59 60 63 63 76 84 87 92 92 89 90 90 89 92 92 86 81 80 80 73 67 66 57 47 45 45 44 44 44 43 41 41 42 46
26 23 21 19 17 16 15 15 16 16 17 17 17 17 17 16 19 26 28 32 36 30 28 26 19 25 48 65 60 42 23 12 19 25 22 22 18 14 9 3 6 9 10 13 14 16 18 23 24 22 22 18 29 49 53 57 62 66 80 88 90 93 92 89 91 90 89 91 86 85 84 82 83 75 69 66 54 46 45 45 45 44 44 42 40 40 40 44
28 24 22 19 17 15 14 14 15 15 16 16 16 16 15 16 17 23 28 31 36 32 29 25 20 34 58 65 45 22 15 10 16 24 24 24 20 15 8 4 5 4 8 15 15 18 18 21 22 22 21 18 33 50 53 58 66 72 79 86 91 93 96 92 91 92 90 93 89 84 83 84 84 72 65 63 53 47 46 46 46 44 44 41 39 41 41 43
30 26 22 20 17 15 13 13 13 13 15 14 15 15 15 16 15 21 27 31 37 34 31 25 23 40 63 73 50 17 9 11 11 18 24 23 18 15 8 7 9 3 8 14 15 18 19 22 22 22 18 16 37 56 59 62 67 73 76 87 94 91 96 96 93 94 90 94 94 88 86 87 86 73 65 63 54 50 48 46 46 45 44 41 39 41 42 44
31 27 23 20 17 15 13 12 12 12 13 13 14 14 14 15 15 20 26 34 39 35 31 26 29 50 66 66 42 15 14 15 8 11 21 20 14 15 10 9 11 7 8 12 15 16 16 19 17 18 15 13 34 51 57 62 65 75 79 87 96 92 97 98 93 93 93 95 92 90 94 93 89 78 71 67 57 53 51 47 46 44 41 40 40 40 42 45
31 27 23 20 16 14 12 12 11 11 11 12 14 14 14 15 16 20 28 39 42 35 31 30 37 59 72 56 26 17 24 18 6 6 14 15 13 16 13 10 11 9 9 10 12 12 11 12 11 15 13 14 35 50 60 69 75 85 83 84 95 97 99 96 92 94 96 96 90 90 95 95 89 79 74 72 59 51 50 47 45 43 40 39 38 38 42 45
29 25 22 19 17 14 12 11 11 10 10 12 13 13 14 14 16 21 30 43 47 37 32 37 44 59 73 57 25 16 18 11 6 7 10 11 14 16 15 13 11 9 9 9 9 8 8 9 12 16 13 14 32 56 69 76 88 94 87 89 95 96 99 95 90 93 95 94 91 91 93 91 86 74 71 76 63 49 49 47 43 40 38 38 36 37 40 42
27 23 21 20 19 16 13 11 10 10 9 11 12 12 13 14 16 22 34 48 49 39 39 50 53 59 67 51 23 13 11 8 8 11 11 11 13 15 15 14 12 11 9 9 9 8 8 12 16 15 14 13 21 50 76 82 92 94 87 92 97 97 101 97 91 92 93 91 90 91 94 92 83 68 67 76 66 50 48 47 43 40 37 36 35 36 38 41
26 23 22 23 22 20 16 13 11 9 9 10 11 12 13 13 17 29 44 52 47 43 48 55 58 61 57 37 20 14 11 11 11 12 13 12 12 13 13 13 12 11 10 10 9 10 13 15 18 15 15 16 13 36 74 91 93 90 88 93 96 96 98 98 96 92 91 90 89 91 93 87 73 63 66 74 65 49 47 47 42 39 38 36 36 36 38 42
26 23 22 23 24 23 20 15 12 10 9 9 10 11 12 17 31 45 52 53 53 56 59 60 60 49 35 28 24 15 9 11 11 10 12 11 11 12 11 11 10 10 11 12 11 13 16 16 18 18 17 18 14 22 50 76 84 84 88 92 93 95 96 97 97 93 91 93 92 92 93 84 68 61 65 71 62 47 45 45 42 40 39 38 37 36 38 41
26 23 21 22 24 24 22 18 14 11 8 9 10 10 15 29 45 52 57 61 59 50 43 51 55 32 16 21 21 13 9 10 9 9 10 10 11 12 11 10 9 10 12 14 15 16 16 17 20 21 21 19 17 17 20 42 67 74 78 87 94 98 97 95 95 93 91 94 95 92 94 87 68 61 63 65 56 44 44 45 42 42 41 41 39 36 37 39
26 23 20 20 22 23 22 19 17 12 8 9 10 12 20 31 38 40 50 60 54 36 25 33 42 31 20 18 13 11 11 9 8 9 9 10 11 13 12 11 9 10 13 15 17 17 14 19 24 23 24 17 16 16 11 30 60 70 77 88 93 96 97 94 93 94 89 91 96 91 92 88 75 71 71 71 57 44 45 44 45 46 42 43 41 38 39 37
25 22 19 19 20 21 21 20 19 14 9 10 13 18 21 23 26 26 29 35 32 28 28 27 30 30 24 17 10 9 10 9 10 9 9 10 11 15 15 12 10 11 13 13 14 14 13 18 23 21 19 17 15 12 18 45 62 67 80 91 92 94 98 95 93 94 89 91 97 92 91 91 88 86 82 80 71 56 50 43 42 44 44 46 42 40 41 35
23 21 18 17 19 20 20 21 18 12 10 13 19 25 23 17 19 19 19 22 19 18 21 20 23 26 23 19 12 7 9 10 11 10 10 11 13 17 17 13 13 12 11 11 11 13 16 17 17 15 14 16 14 10 30 56 60 66 79 86 93 96 96 97 95 94 91 94 97 92 93 95 95 93 84 82 83 79 73 63 53 43 43 49 43 41 44 36
22 20 17 17 18 19 21 20 14 12 15 17 21 25 22 16 16 15 17 24 22 18 17 17 18 17 16 14 9 7 9 10 11 11 10 12 14 16 17 16 15 14 11 11 12 14 18 15 12 12 12 14 12 12 36 56 58 69 78 83 94 93 89 97 98 94 91 92 93 91 95 98 96 95 87 81 83 85 86 85 74 52 43 46 41 41 45 38
21 18 17 17 17 20 21 15 13 17 17 15 19 20 16 15 17 17 20 26 27 22 18 17 12 10 10 9 7 9 10 11 12 12 11 12 14 15 16 17 16 17 14 11 11 13 14 11 10 11 10 13 12 12 37 60 65 69 72 81 93 90 88 95 96 92 91 92 90 90 97 99 96 95 90 85 82 82 84 85 77 58 45 43 40 39 43 40
18 18 18 16 19 22 18 13 16 19 15 15 17 15 12 15 17 17 22 32 35 26 18 15 10 7 9 7 9 11 11 12 12 12 12 10 12 14 16 16 16 18 17 13 11 11 11 9 9 11 10 13 10 10 33 59 70 70 64 71 82 86 92 96 93 91 95 98 92 90 96 97 96 95 91 90 86 81 84 84 76 68 58 46 38 39 43 41
17 17 17 17 21 20 16 19 21 15 13 16 15 14 15 17 18 17 28 43 44 29 17 13 10 7 8 9 9 11 14 16 12 11 11 10 11 12 15 17 16 16 15 13 11 9 9 7 8 10 10 11 9 14 34 52 66 69 59 61 74 85 95 96 93 92 97 99 93 93 96 97 99 97 90 91 90 83 82 83 79 79 75 56 37 38 43 40
16 16 16 19 21 22 22 23 19 14 13 15 17 20 19 18 17 16 35 50 37 19 13 11 9 7 7 9 7 12 21 18 11 9 10 11 11 11 15 18 17 15 12 12 14 10 7 7 8 9 9 10 10 21 40 46 55 61 55 63 77 86 93 92 91 95 97 96 94 94 94 96 99 94 88 91 92 88 82 81 80 81 83 69 44 37 42 40
15 14 15 19 21 26 27 23 21 20 16 16 21 23 18 19 18 21 46 54 23 8 12 8 7 7 6 8 6 11 18 14 12 12 8 9 11 11 15 15 16 17 14 16 20 15 8 6 7 7 8 10 8 22 39 39 48 59 58 66 75 80 88 89 90 97 95 93 97 96 93 95 96 92 91 93 93 89 83 78 79 79 81 78 61 45 42 40
14 13 14 17 20 27 31 31 30 25 16 17 23 21 18 20 23 32 59 60 23 7 12 8 7 8 6 8 7 9 11 12 15 14 9 11 11 11 14 15 15 16 14 16 21 17 9 7 8 7 9 10 8 21 33 36 50 61 59 64 68 73 84 89 93 96 92 93 96 92 92 95 96 96 98 98 96 90 80 72 74 77 76 77 74 58 46 41
12 13 12 16 22 29 37 34 24 18 14 16 21 19 18 25 36 52 63 49 20 9 11 9 9 9 8 8 9 10 12 12 13 12 12 12 11 11 12 13 13 15 17 17 17 17 11 10 13 12 12 12 13 22 28 37 51 57 59 63 66 75 88 94 95 93 92 95 92 85 88 93 95 97 98 95 90 83 76 71 70 75 75 75 76 67 54 44
11 12 11 16 22 28 36 30 19 18 13 13 18 18 25 36 47 60 54 28 13 11 10 9 9 8 8 9 9 10 12 12 12 13 14 12 12 13 13 16 17 20 28 24 18 17 11 10 13 12 14 13 15 24 29 41 51 56 62 62 67 84 92 93 95 94 94 96 91 85 87 92 94 96 93 87 80 74 70 69 67 70 73 73 73 69 61 50
8 11 12 16 19 20 25 21 16 17 9 9 18 23 39 50 52 56 43 19 12 12 9 8 9 8 7 9 10 10 11 12 12 13 15 14 15 15 14 20 22 23 32 30 21 17 13 12 10 10 13 11 14 31 45 51 51 57 62 61 74 92 93 94 95 92 95 95 90 87 88 92 93 91 88 84 82 78 70 63 60 64 66 68 69 68 65 57
7 11 14 18 18 14 12 9 7 9 6 13 24 32 48 57 54 50 32 14 11 9 8 9 8 8 9 11 11 11 11 11 11 12 14 14 16 17 15 17 19 19 25 26 21 19 18 17 13 10 13 11 13 33 54 58 55 57 56 55 74 90 92 97 95 88 93 94 88 86 88 93 93 87 79 73 74 75 71 62 55 59 62 61 63 63 63 61
9 12 16 20 19 11 7 5 6 8 8 17 33 44 51 55 54 41 18 9 10 7 8 9 8 10 12 12 12 12 12 12 11 11 13 15 16 19 17 15 15 13 18 23 21 20 22 24 20 15 14 12 13 23 38 48 52 52 46 44 59 72 79 90 93 92 96 95 92 90 89 92 96 90 75 64 62 62 64 62 56 59 62 59 60 60 60 60
13 15 15 20 20 13 7 5 7 7 11 27 46 54 55 54 49 30 13 10 10 7 8 8 10 14 15 15 13 11 13 13 13 14 16 17 17 18 17 15 14 12 17 23 21 19 22 24 19 14 13 12 13 14 17 31 42 40 36 39 46 53 63 76 82 84 90 96 95 93 91 90 93 90 71 60 61 59 58 59 57 60 64 63 62 61 58 58
13 17 17 18 19 16 10 8 8 6 17 40 56 59 58 50 36 20 13 13 8 7 10 11 15 18 19 19 15 12 13 14 15 20 21 19 19 19 15 14 14 13 16 20 19 19 23 24 17 13 14 12 13 13 10 20 34 32 29 33 35 36 50 72 77 70 78 91 91 90 93 90 89 88 73 62 65 63 59 58 57 59 64 66 65 61 59 58
12 24 26 20 17 17 18 14 8 9 25 44 56 60 54 39 26 17 13 12 7 6 11 16 20 19 17 20 18 13 15 17 16 21 24 24 24 20 14 15 14 13 15 17 18 19 20 22 18 14 15 12 11 13 9 13 23 26 24 25 26 28 39 63 80 77 77 84 87 89 92 89 89 91 83 74 71 65 59 58 57 57 62 66 65 61 58 58
16 32 32 20 14 16 21 19 13 19 32 42 53 58 47 32 25 17 9 7 8 7 12 17 18 17 16 19 19 14 15 19 18 21 26 26 25 20 15 16 15 13 15 14 17 19 18 23 23 18 16 15 11 11 12 14 14 17 19 20 29 42 44 48 62 73 75 79 88 90 87 86 88 91 87 78 70 64 61 61 59 59 63 65 64 62 59 57
24 38 33 19 14 16 21 21 19 26 32 40 53 53 37 28 24 16 9 8 8 8 12 14 13 17 18 17 19 16 14 17 18 22 27 27 26 22 15 15 16 15 15 14 17 20 20 25 27 22 17 16 14 13 18 21 14 12 14 15 27 46 51 45 46 57 68 79 87 86 83 84 80 82 85 76 65 63 63 64 62 59 61 61 61 63 61 61
28 35 31 18 15 19 21 21 22 27 32 41 50 42 28 24 20 13 10 8 6 8 11 11 11 17 19 17 18 17 15 17 17 21 26 26 26 23 16 15 17 15 14 16 19 23 26 27 27 26 20 19 21 18 19 21 16 15 16 15 23 32 36 39 41 46 62 78 84 82 85 83 71 69 73 65 61 64 62 66 69 64 64 68 67 64 62 68
39 26 25 17 14 19 22 23 25 29 33 36 36 29 22 23 19 10 8 8 7 8 9 9 12 16 17 18 20 18 17 19 18 18 21 21 24 24 18 15 16 15 16 19 21 24 30 31 31 32 27 24 24 18 15 18 15 17 19 17 25 31 33 43 46 42 54 69 73 74 81 79 67 66 65 56 59 65 63 70 81 81 80 85 86 80 77 82
43 19 18 11 11 19 22 24 26 27 29 28 25 22 20 21 18 9 6 7 7 8 9 9 11 14 15 16 18 18 19 22 20 19 17 16 19 21 17 14 14 14 16 21 21 22 29 34 35 37 33 26 22 18 17 19 15 15 15 13 22 30 36 49 51 42 48 60 64 69 75 73 71 75 73 65 65 71 71 78 88 89 84 83 89 92 90 91
34 23 16 5 7 14 16 24 30 27 24 21 18 17 17 17 15 9 6 8 8 8 8 8 9 13 14 14 15 15 19 23 20 18 19 17 14 15 15 13 13 15 20 25 23 22 31 39 39 45 49 38 29 27 24 19 19 22 22 20 22 26 29 39 43 44 53 59 59 66 72 71 74 80 77 72 74 79 81 85 89 89 85 83 89 93 89 90
36 37 24 7 8 12 18 27 31 29 28 22 17 15 14 12 11 9 7 9 11 8 6 8 8 10 11 11 13 14 19 25 22 18 21 19 15 15 15 13 13 16 22 27 24 20 29 44 52 58 61 53 49 48 37 27 28 31 30 29 33 35 29 26 32 44 57 55 49 55 62 64 71 78 78 78 83 88 88 89 90 90 91 91 93 94 92 90
46 43 32 20 14 13 22 27 25 28 28 21 18 15 13 12 9 7 9 9 10 8 6 7 6 7 10 10 12 16 20 26 27 23 21 19 18 16 14 16 15 16 26 31 28 24 29 47 60 61 58 55 57 55 46 39 35 31 33 36 46 51 37 23 28 41 49 48 46 54 62 70 79 80 81 87 90 94 94 92 93 94 95 96 95 96 96 95
40 35 30 29 25 20 24 24 18 21 21 18 21 18 14 13 8 7 10 8 8 7 7 8 7 7 10 11 16 21 21 22 25 26 23 23 23 17 15 19 17 24 38 36 29 32 36 44 55 58 54 51 54 53 45 40 38 38 45 49 55 61 50 34 30 33 41 48 57 70 76 80 86 83 85 93 94 95 97 96 97 98 97 97 97 96 96 95
45 38 32 35 42 39 35 32 25 24 22 21 25 21 14 12 9 9 10 9 10 10 8 8 7 7 11 14 19 22 21 24 28 28 25 27 27 20 18 19 17 31 42 30 27 38 40 39 43 46 44 39 43 46 37 35 43 51 57 58 59 64 66 62 51 42 46 51 60 81 86 81 85 86 88 96 96 95 99 99 99 100 97 97 98 97 97 97
45 40 35 37 50 53 49 45 38 33 29 26 26 21 13 11 11 11 11 10 9 9 11 11 8 8 12 16 21 23 22 29 36 35 31 32 30 25 25 22 19 29 31 21 28 40 37 37 35 32 35 33 38 46 39 39 53 58 59 62 64 67 73 79 77 66 59 54 60 82 91 87 89 90 91 97 98 98 100 99 98 98 97 98 98 98 99 98
46 48 47 42 46 52 50 46 42 38 35 34 34 26 14 11 13 11 10 12 11 11 16 19 15 13 14 21 28 25 21 30 37 35 31 30 30 29 31 30 27 30 25 18 27 33 34 41 36 31 38 36 39 50 46 45 58 63 64 66 66 70 74 78 81 77 70 69 77 90 97 97 95 93 94 97 95 95 97 97 97 98 97 97 97 97 99 97
61 63 58 54 56 57 52 46 44 44 41 36 33 27 17 11 12 10 9 14 16 14 16 18 16 14 14 23 27 17 21 37 41 36 32 30 34 37 34 30 29 32 29 23 24 27 30 40 43 42 48 43 40 46 45 46 59 66 70 73 69 71 77 81 85 86 85 88 90 93 98 100 96 92 94 93 89 92 97 98 99 99 96 96 97 97 98 97
59 58 56 65 72 68 56 47 45 47 46 38 30 29 28 21 18 13 10 14 16 14 15 15 15 15 16 23 23 14 22 37 34 29 30 31 35 38 33 28 26 30 32 27 27 29 29 39 53 59 59 50 39 40 43 46 55 62 68 76 80 81 82 86 90 92 94 94 91 92 98 101 98 95 95 94 92 94 98 99 100 99 96 97 98 98 98 97
59 61 60 66 75 73 61 52 48 48 47 42 35 34 32 28 25 19 16 18 14 11 15 13 13 22 25 25 23 15 16 21 16 14 19 22 24 27 28 28 24 28 35 29 27 31 29 34 48 58 63 57 45 44 49 55 69 79 75 71 79 85 85 87 90 91 93 94 94 98 100 98 97 96 96 97 96 96 98 98 98 98 98 98 98 98 97 97
Wind_Speed
14 15 15 16 15 15 14 13 13 13 12 12 12 12 12 12 12 12 12 12 13 13 13 14 14 15 14 12 11 11 13 13 11 7 7 10 10 11 10 7 5 6 8 6 4 4 4 5 9 10 6 4 3 3 4 4 2 2 2 2 2 3 3 4 6 4 3 5 4 3 2 9 6 3 1 4 8 9 9 8 9 11 12 13 19 27 28 28
16 17 17 17 17 16 15 15 14 14 13 13 13 13 13 13 13 14 14 14 15 14 13 14 14 15 13 11 10 10 14 14 11 10 12 9 6 13 14 9 6 5 7 7 6 6 4 3 5 5 3 2 2 4 5 2 1 2 2 2 3 4 4 4 5 3 2 6 6 4 3 8 9 4 1 5 9 10 11 10 12 14 13 16 23 27 26 27
17 18 18 18 17 17 16 16 15 15 14 14 14 14 14 14 14 14 15 16 16 16 15 14 14 14 12 10 9 10 14 11 6 7 6 7 11 13 14 11 8 7 7 6 6 8 8 5 6 3 2 3 3 4 4 2 2 1 2 2 4 4 3 2 5 4 2 6 7 4 3 5 6 3 1 6 11 11 11 11 13 16 15 16 19 23 25 25
18 18 19 19 18 18 18 17 17 16 16 16 17 17 16 16 15 14 14 15 16 16 16 13 12 12 11 9 8 10 11 5 2 3 1 3 10 10 12 12 9 9 8 7 7 9 10 7 7 4 3 5 4 4 4 5 3 1 3 3 3 3 1 2 5 4 2 7 8 5 4 5 4 2 2 7 11 9 10 12 15 18 18 18 17 19 22 22
18 18 19 19 20 20 19 19 19 18 19 19 19 19 19 19 17 16 15 14 15 16 17 13 11 11 10 9 7 9 7 2 1 4 0 2 4 8 12 11 10 11 9 9 8 8 9 7 4 2 3 5 3 4 4 5 4 2 2 2 2 4 1 3 7 5 5 7 5 6 7 5 3 1 2 8 9 6 7 13 17 18 17 19 18 18 19 19
18 18 19 19 20 20 20 20 20 20 20 20 20 20 21 20 20 19 17 14 13 14 16 13 11 10 11 9 5 5 4 1 4 5 3 1 3 6 9 11 12 12 11 10 8 5 5 4 3 3 3 3 2 4 3 4 4 2 2 1 2 3 3 2 3 2 4 8 6 6 6 4 4 2 2 6 5 5 9 14 17 16 18 21 21 18 16 15
18 18 18 19 19 20 20 20 20 20 20 20 20 21 21 21 21 20 19 16 14 14 14 12 10 9 11 8 3 2 3 4 7 4 4 1 1 5 8 10 12 13 11 10 8 5 3 3 3 3 3 3 2 4 5 5 4 2 1 2 2 4 5 4 4 2 1 5 5 4 5 4 5 5 3 3 4 9 13 15 16 17 20 20 16 14 14 14
18 18 18 19 19 19 20 20 20 20 21 21 21 21 22 22 21 20 19 17 15 14 12 10 8 7 11 7 2 2 0 5 6 6 4 2 2 4 8 10 13 13 13 13 10 6 3 3 6 4 3 4 3 4 6 6 3 2 3 3 4 5 6 7 7 5 4 3 3 1 6 4 4 5 3 2 8 14 15 15 16 17 17 14 11 13 13 13
19 19 19 19 19 19 19 20 20 20 20 21 21 21 22 22 21 19 18 16 15 13 10 9 6 5 9 4 1 2 1 3 3 6 4 3 2 5 8 9 13 15 13 14 12 7 3 4 6 4 2 4 4 5 6 5 3 2 6 5 5 5 6 8 6 4 6 4 2 2 3 1 1 3 2 3 11 16 16 17 16 15 14 12 11 12 11 11
19 19 20 20 20 19 19 20 20 20 20 21 21 21 21 22 21 18 16 15 14 12 9 7 4 5 6 3 3 2 2 3 3 6 4 4 3 5 8 9 13 16 13 11 12 9 6 6 6 4 4 4 2 3 3 3 3 7 10 7 5 8 8 7 6 4 3 3 6 7 3 1 3 2 2 5 12 16 17 17 16 14 12 12 11 11 10 12
19 20 20 20 20 20 20 20 20 20 21 21 21 21 21 21 21 18 15 14 13 11 8 6 4 5 4 3 3 1 4 3 2 5 5 5 3 3 8 9 11 16 13 8 11 15 14 13 10 4 3 2 1 3 3 5 9 10 11 8 7 10 8 4 6 5 3 3 1 4 5 6 7 1 7 9 12 16 18 17 15 14 11 12 12 10 8 11
19 20 20 20 20 20 20 20 21 21 22 22 22 21 21 21 21 18 14 12 12 10 8 5 3 3 3 2 3 5 6 5 3 5 7 6 3 3 5 9 10 13 14 7 11 19 18 16 11 4 4 1 2 2 5 8 9 7 7 6 4 7 7 3 4 3 2 2 2 1 7 3 6 1 9 10 11 15 16 17 15 13 11 11 11 8 5 12
19 20 20 21 20 20 20 20 21 22 22 22 22 21 22 22 20 17 13 11 10 8 6 4 2 2 3 1 6 7 9 8 8 6 10 9 6 5 5 10 9 11 14 11 13 17 16 16 11 6 5 1 1 2 7 7 5 4 4 4 3 3 3 3 3 2 3 3 1 1 5 5 7 7 2 6 10 15 15 15 14 11 11 10 8 6 6 13
20 21 21 21 20 20 20 20 21 22 23 23 22 22 22 22 21 17 12 10 8 5 3 2 1 2 2 4 10 9 10 9 8 7 10 11 11 8 7 11 12 12 14 16 17 16 18 20 14 7 4 2 3 3 7 5 3 3 3 2 1 1 1 4 2 3 4 3 3 1 5 6 7 10 7 3 10 16 15 14 13 10 10 9 7 7 8 12
21 22 22 21 21 20 20 21 22 22 23 23 22 23 23 23 22 17 11 8 5 3 3 3 1 1 1 7 9 6 7 6 6 8 8 10 12 9 10 14 15 16 17 19 20 18 19 18 10 5 3 2 5 5 4 3 3 1 2 1 1 1 2 4 2 1 3 4 1 1 4 5 7 11 7 3 8 15 14 12 11 11 11 9 7 8 8 10
22 23 22 22 21 21 21 21 22 23 23 23 23 23 23 25 23 15 10 6 2 3 2 2 0 1 1 5 6 5 6 5 4 5 7 12 13 10 13 15 16 18 20 21 22 20 17 11 5 4 2 2 5 6 3 3 2 2 1 2 1 2 3 2 1 4 2 5 2 1 4 3 5 10 8 4 8 12 12 11 11 11 10 10 8 7 8 9
23 24 23 23 22 21 22 22 23 23 23 24 24 23 23 25 21 11 5 1 2 4 3 1 2 1 2 6 6 5 6 7 6 5 8 11 10 10 11 10 9 12 14 16 17 13 8 4 2 2 1 2 4 5 4 1 2 1 1 1 2 3 4 3 2 4 1 4 2 2 3 4 6 10 8 5 8 12 12 10 11 10 9 9 8 7 9 10
24 24 23 23 22 22 22 22 23 23 24 24 24 25 24 19 12 3 3 5 4 3 2 1 1 2 3 6 3 3 5 6 5 3 6 8 7 9 8 6 4 4 3 6 8 5 2 2 0 0 2 1 3 4 3 4 5 5 4 2 2 3 3 4 4 4 3 4 2 4 2 5 8 10 6 5 8 12 12 10 9 9 9 9 8 8 9 10
24 24 24 23 22 22 22 23 23 24 25 23 22 24 18 10 6 4 7 6 3 0 2 2 3 1 5 6 4 4 5 4 3 1 4 5 6 7 4 3 3 4 2 1 4 3 2 1 2 2 2 3 5 6 7 6 7 9 6 4 5 4 3 4 4 3 4 4 2 4 3 4 9 10 6 5 9 12 10 9 9 8 8 8 7 8 9 10
24 24 24 23 22 22 22 23 23 23 23 23 23 19 9 5 5 1 2 3 4 5 7 6 6 4 8 8 3 4 4 2 1 3 3 5 5 3 2 1 2 3 3 3 3 3 2 1 2 5 6 8 9 8 8 6 7 8 6 4 5 5 4 3 5 5 3 2 1 2 2 3 6 5 1 1 5 10 10 10 10 9 8 7 7 8 9 9
24 24 24 23 23 22 22 22 22 22 22 23 21 10 1 1 2 4 4 4 7 9 10 10 10 9 11 12 5 3 4 1 3 4 6 6 3 1 2 1 3 2 3 4 3 2 2 3 6 9 9 11 10 7 5 5 7 8 6 6 5 4 4 4 5 6 3 2 1 3 2 2 1 3 5 7 2 4 8 11 12 12 10 7 8 9 9 8
24 24 24 24 23 22 22 22 20 21 20 19 15 4 4 5 4 8 7 6 11 10 10 10 10 10 14 19 12 2 4 1 4 5 7 6 3 2 2 1 4 4 4 2 1 2 1 4 10 12 10 10 8 5 5 8 8 5 4 5 4 4 6 6 4 4 1 2 2 4 3 1 5 3 2 5 3 2 0 5 9 13 12 8 9 10 8 8
24 25 25 24 23 23 21 20 19 17 14 15 12 6 10 15 14 15 8 3 9 10 7 6 6 6 8 12 10 5 3 4 3 4 6 6 4 4 2 1 4 4 2 3 4 3 3 7 13 13 9 8 9 5 7 9 6 4 4 4 4 6 6 3 3 4 1 0 5 5 4 1 4 3 2 2 1 4 5 4 2 9 12 11 11 9 8 9
25 26 25 24 24 22 21 21 15 9 11 16 15 12 18 20 13 12 6 1 5 7 5 6 5 3 3 2 4 5 2 3 4 4 8 7 4 2 3 4 3 2 4 6 7 6 8 10 10 10 9 8 9 5 8 7 3 4 5 4 6 8 5 5 8 8 1 4 5 6 4 1 3 2 4 3 1 3 5 4 2 4 9 11 12 10 9 9
26 26 26 26 24 21 21 16 6 6 15 16 13 15 22 17 9 6 3 1 3 5 4 4 2 1 1 2 5 5 2 1 3 7 11 9 5 2 1 3 2 4 7 7 7 6 11 11 5 6 9 9 8 5 9 8 4 4 5 4 9 11 9 11 13 10 3 1 3 4 3 3 3 3 5 3 2 4 3 3 3 2 4 8 12 11 10 10
26 26 26 26 24 21 17 7 3 12 16 10 10 19 21 17 15 9 2 3 3 4 3 1 1 1 3 2 5 3 3 2 6 11 12 9 8 4 1 2 1 5 6 5 5 3 7 8 6 9 10 9 7 4 10 11 6 2 4 5 10 12 13 15 14 8 3 3 5 3 2 3 2 5 6 3 4 7 4 3 5 3 2 7 10 10 9 10
26 26 26 25 24 21 11 4 9 14 7 7 15 21 18 18 22 12 3 4 3 3 2 1 1 2 4 3 5 5 2 3 5 6 7 9 8 4 2 3 2 4 2 1 2 3 7 6 7 10 8 7 5 4 10 13 8 3 3 10 12 12 13 15 11 4 2 5 6 5 2 3 2 5 6 3 4 7 6 5 6 5 4 6 9 10 10 11
27 26 25 23 22 19 11 8 13 9 4 12 19 18 17 19 19 8 4 3 1 2 1 2 0 1 2 1 4 4 3 3 2 3 3 9 8 4 2 5 4 6 3 2 3 7 6 5 7 7 4 5 4 6 12 11 7 2 8 12 11 11 9 6 5 4 3 5 5 5 1 3 2 4 3 3 5 8 9 8 8 7 6 5 7 9 10 12
27 26 24 22 20 16 11 10 10 6 8 16 17 17 19 17 10 4 5 3 0 2 1 0 0 2 2 2 1 2 2 2 3 4 1 6 6 3 2 6 4 6 6 4 5 7 5 4 7 6 4 5 5 10 14 10 8 9 15 15 12 12 9 4 1 4 4 2 2 4 3 1 2 4 5 4 7 10 10 9 8 8 7 6 6 7 8 10
26 25 23 21 17 11 9 11 9 4 12 17 17 18 16 9 4 5 3 1 1 3 1 0 1 2 2 1 3 2 4 3 1 1 1 0 2 1 1 3 2 4 5 3 5 8 7 5 4 4 5 6 4 7 8 12 17 15 14 13 11 8 6 4 2 2 3 1 0 4 6 4 2 4 7 7 7 10 10 9 9 8 7 6 6 5 7 8
26 24 21 18 14 7 6 7 5 4 13 18 19 17 10 4 4 5 1 1 1 2 2 2 3 2 4 3 3 2 3 2 2 1 1 2 1 0 2 2 2 3 4 3 4 6 5 4 4 3 4 3 7 5 6 15 20 14 9 9 8 4 3 3 4 3 2 2 2 3 6 6 4 3 6 8 9 12 12 11 11 10 8 7 6 6 6 7
25 22 18 15 12 10 8 6 5 9 14 17 16 10 4 4 3 1 2 3 2 2 3 3 3 2 1 3 2 1 4 1 2 1 3 0 1 2 1 2 1 3 4 3 4 5 4 4 4 3 2 4 8 6 7 10 10 9 8 8 7 3 2 2 2 1 0 2 1 2 4 6 5 3 5 9 10 12 12 12 13 12 10 9 7 7 6 6
23 19 15 13 12 13 12 10 10 11 13 14 10 4 5 4 1 2 2 3 1 2 3 2 4 7 5 4 3 3 4 0 2 1 1 1 0 3 2 4 4 3 1 3 3 4 4 6 5 2 2 2 8 7 5 4 5 9 9 6 5 3 2 1 2 1 1 2 1 2 4 3 3 3 6 10 12 12 12 12 12 12 12 11 9 8 6 6
21 16 13 13 13 13 11 9 10 9 10 10 5 4 5 3 2 2 2 2 2 2 3 3 7 9 6 3 1 2 4 3 3 2 3 4 2 2 4 4 3 3 2 1 3 1 2 4 4 2 3 0 6 7 8 9 8 7 7 7 6 4 3 4 4 2 2 1 2 2 3 3 2 2 3 7 9 12 13 12 10 10 10 10 8 8 7 7
20 16 14 13 11 9 6 6 7 6 5 5 5 5 3 1 3 1 1 3 2 4 5 6 6 6 5 2 1 1 3 1 5 4 5 6 2 2 4 4 2 1 2 2 2 1 2 3 6 4 5 2 5 6 7 10 6 4 4 6 4 5 5 3 2 3 3 2 2 2 2 3 3 3 4 3 4 8 13 13 12 11 10 10 9 9 8 8
19 17 13 12 10 7 3 4 6 5 1 4 5 2 2 3 3 1 2 3 1 3 6 7 5 3 4 4 2 3 2 2 4 4 4 5 3 3 5 4 3 4 2 2 1 2 1 5 8 7 9 4 6 7 6 9 5 3 3 4 3 5 8 5 2 1 3 2 1 1 2 2 1 3 5 5 5 5 10 14 15 13 12 11 10 10 9 9
20 16 11 12 12 7 4 3 6 7 4 6 4 1 3 4 2 2 3 1 1 2 3 4 2 1 3 3 3 5 4 3 4 2 2 4 3 3 5 4 4 7 3 2 0 1 1 5 7 5 8 7 4 6 4 5 6 4 4 5 2 3 4 5 3 1 2 1 1 1 2 2 1 2 2 4 6 6 7 13 15 14 14 13 12 12 12 11
18 13 10 14 11 8 7 7 8 7 5 5 1 2 3 3 2 3 3 0 1 2 4 1 2 1 1 2 2 4 5 3 3 2 0 2 2 2 4 4 4 8 7 2 3 3 2 3 6 4 7 9 2 3 1 3 2 5 4 3 3 2 0 1 2 2 2 0 1 1 2 3 3 3 1 3 7 6 5 9 13 13 13 12 12 13 13 11
10 6 7 8 8 7 9 10 9 5 5 2 1 2 2 3 6 7 4 1 2 3 3 1 2 1 1 1 1 3 4 1 1 2 1 0 2 1 3 2 4 8 9 6 5 3 2 2 4 5 8 9 4 2 2 4 4 2 1 1 2 3 3 2 2 3 4 2 1 1 2 3 4 4 5 5 6 5 5 7 10 13 14 13 12 12 11 10
3 3 5 6 4 7 10 11 6 3 2 2 3 3 3 4 8 8 5 2 2 2 1 3 0 1 1 3 3 2 2 2 1 2 1 1 1 2 2 1 3 6 7 6 6 3 2 3 3 6 7 6 3 1 2 3 2 1 2 1 1 1 2 3 1 1 4 4 2 1 1 4 5 4 7 8 6 6 6 5 4 6 8 6 5 7 8 8
2 3 5 4 9 5 13 10 2 1 2 3 3 3 4 4 5 5 3 2 1 2 2 1 0 1 1 2 2 1 1 2 2 1 1 1 0 1 3 2 3 4 5 5 5 3 1 2 2 4 5 3 4 5 4 4 4 4 2 3 4 2 3 3 1 1 2 3 4 3 1 5 5 3 5 6 6 7 7 7 6 5 7 6 3 2 2 1
1 1 7 7 10 3 13 6 2 3 2 3 3 3 5 4 5 4 1 1 2 1 1 1 0 1 0 0 1 1 2 1 1 2 2 2 1 2 3 3 3 3 3 3 3 1 1 2 2 3 3 4 9 9 5 5 3 2 2 1 1 2 4 4 3 3 2 2 2 3 1 4 3 2 3 3 6 6 6 9 8 6 8 9 8 8 7 4
1 4 12 14 10 3 6 1 3 2 2 4 3 4 6 6 7 5 0 2 3 2 2 1 1 1 1 1 1 1 1 1 1 1 2 1 1 3 5 3 4 4 4 2 3 3 1 2 3 4 4 6 8 7 4 6 7 4 3 4 4 2 2 4 4 4 3 2 2 3 0 4 3 3 4 5 7 6 5 8 9 7 7 8 9 9 9 8
2 4 8 13 10 1 4 3 3 3 4 5 5 7 7 5 5 4 2 2 3 2 1 0 1 1 2 3 1 1 1 1 1 1 1 0 2 3 4 6 5 4 2 1 1 2 2 1 3 3 5 6 7 7 6 7 7 3 4 5 7 8 5 1 2 3 3 4 5 4 3 5 2 3 6 6 8 8 5 5 7 6 5 7 9 7 7 7
3 2 4 9 8 2 5 4 4 4 4 4 6 8 7 4 2 3 4 3 3 3 2 1 1 2 2 2 1 2 2 2 1 2 3 2 3 3 5 10 7 2 0 2 3 2 1 2 3 3 3 2 3 4 4 4 5 3 4 6 9 11 8 1 3 3 2 4 5 4 4 5 2 5 7 7 7 8 5 4 5 4 5 7 7 7 7 6
3 1 3 6 4 1 1 2 2 2 4 4 5 7 6 3 2 2 4 3 2 3 3 1 0 2 3 3 4 3 3 1 1 2 2 2 3 3 3 8 5 2 5 4 1 4 2 2 3 5 4 3 4 4 5 4 3 4 6 9 10 10 8 3 4 3 4 5 4 4 5 3 1 4 6 5 6 6 5 5 6 6 7 7 7 7 8 8
1 1 1 3 3 3 4 4 4 3 4 4 3 6 6 3 3 1 2 2 2 4 3 0 1 1 1 3 3 2 3 4 4 3 2 1 2 4 4 5 3 5 10 7 2 4 4 2 1 5 2 3 2 4 10 6 2 5 7 9 9 10 11 9 3 4 4 7 5 6 4 4 2 3 5 4 4 5 4 5 6 6 7 6 6 8 10 9
1 1 2 2 2 2 3 4 6 6 7 6 3 6 8 4 5 2 2 0 3 3 2 1 1 2 2 4 3 1 3 5 4 2 2 2 2 4 6 5 4 6 9 6 3 4 5 1 2 3 2 4 8 10 12 5 5 8 9 8 8 10 12 9 5 6 2 5 4 2 6 7 4 4 6 5 4 5 5 5 4 6 8 7 6 8 10 9
1 2 3 3 2 3 3 6 6 7 8 6 3 5 6 4 3 2 1 2 1 2 3 2 2 4 4 4 5 3 1 1 1 2 1 2 3 3 3 4 4 5 6 3 4 2 4 1 3 3 4 5 9 9 8 6 10 10 9 8 8 8 10 9 9 10 6 7 8 11 13 9 5 5 6 5 4 5 5 5 5 6 7 7 6 6 6 6
1 1 3 3 3 4 4 4 4 5 6 4 3 5 4 4 3 1 2 4 4 2 3 5 4 5 6 5 5 2 2 6 5 3 3 1 2 1 1 2 3 4 4 1 2 2 3 2 4 4 4 4 5 5 3 4 10 10 9 9 9 8 10 11 10 10 8 10 12 14 12 8 5 4 6 6 4 6 7 7 6 6 5 6 6 6 5 4
4 4 3 1 3 4 3 3 3 4 5 3 2 5 6 8 7 3 0 3 7 6 5 7 6 4 5 7 7 4 0 6 6 4 5 4 2 3 3 3 4 1 4 2 1 2 1 1 3 5 4 3 3 2 3 2 7 10 10 10 10 8 7 7 7 7 7 6 7 10 8 4 3 3 5 6 7 9 10 8 6 5 5 5 5 5 5 4
8 6 4 1 2 3 3 3 3 2 3 3 5 6 5 7 12 10 5 2 3 6 7 8 8 5 5 6 5 1 3 6 5 4 5 5 4 5 4 4 5 5 2 0 1 1 0 1 2 3 3 2 4 4 3 1 5 6 6 8 8 5 4 4 6 9 10 6 4 5 3 2 3 5 6 8 9 9 8 6 5 5 5 5 4 5 6 5
Wind_Direction
6 4 3 4 5 4 3 3 3 0 1 359 356 354 350 349 344 340 336 333 333 334 340 341 339 340 340 344 345 339 331 323 317 294 243 261 256 215 201 181 178 204 205 214 241 246 254 249 239 229 215 217 211 185 157 119 107 119 96 129 187 205 203 207 193 191 145 139 175 235 172 130 148 248 278 109 116 125 120 119 127 118 122 127 127 134 135 133
8 8 7 7 6 5 5 4 3 1 358 356 353 352 348 346 343 341 338 335 334 335 342 344 344 345 343 349 348 336 330 325 312 281 251 250 220 193 197 198 202 214 196 199 226 220 218 245 246 230 194 221 230 167 141 122 139 130 134 166 214 203 194 203 180 177 148 151 167 199 171 145 157 182 160 123 129 127 120 129 130 122 128 125 125 133 136 136
10 9 8 7 5 4 5 3 1 0 358 356 353 351 349 345 343 341 338 336 334 332 335 340 346 347 348 349 346 337 329 327 304 272 257 216 202 193 194 201 208 218 214 215 236 226 219 257 300 298 213 237 242 170 133 151 201 147 138 183 228 203 189 197 172 185 173 150 157 178 176 154 164 164 111 128 133 134 136 144 137 134 140 133 131 136 138 138
12 9 7 5 4 4 3 1 0 359 357 356 354 353 351 348 347 345 342 337 331 328 329 340 349 347 351 349 343 340 331 334 298 266 67 165 206 206 202 203 205 213 224 237 253 242 236 270 307 308 249 249 228 180 160 173 189 145 157 200 209 169 180 183 172 201 170 151 159 160 147 154 180 178 126 130 130 138 150 150 142 144 145 137 138 143 143 143
13 9 7 4 3 2 1 359 357 356 355 354 353 352 351 350 350 349 350 342 334 329 327 341 353 346 350 348 337 337 344 58 298 268 79 77 185 205 211 210 212 217 227 245 253 244 244 257 279 272 246 248 219 187 183 166 141 128 214 254 157 146 185 180 169 191 172 147 151 152 151 155 161 132 125 133 136 158 158 145 143 147 146 140 144 147 147 147
12 9 6 3 1 360 358 356 354 353 353 351 351 352 352 350 349 349 351 349 344 332 327 342 356 348 348 347 330 337 22 117 279 265 237 20 119 183 200 206 214 223 231 238 235 229 235 222 210 230 233 253 215 180 155 144 144 158 242 268 147 126 39 55 137 191 179 152 156 167 156 130 126 130 129 132 145 169 146 138 141 143 144 144 145 149 153 152
10 8 4 1 359 357 355 353 351 350 349 348 349 353 353 351 349 347 349 352 350 338 331 345 358 348 349 354 331 11 66 252 258 227 226 261 129 170 178 198 213 220 221 213 208 210 213 195 207 228 241 276 224 171 151 157 174 148 170 170 117 85 71 89 99 58 185 161 163 159 142 136 155 161 129 122 149 149 138 134 137 139 143 148 148 151 157 152
8 6 2 359 357 354 352 349 347 346 345 344 347 352 353 351 349 346 348 351 350 344 339 353 2 349 352 5 15 15 240 252 233 194 213 192 165 190 184 202 212 210 205 199 199 197 191 216 229 222 232 250 204 171 158 150 167 144 130 132 119 126 131 128 126 121 117 99 357 72 141 157 174 154 114 123 147 140 135 133 135 139 145 152 153 156 159 151
6 4 0 358 355 352 349 345 344 342 340 341 343 349 351 349 349 347 348 349 348 346 346 355 360 357 360 3 41 20 251 276 235 196 197 176 193 208 199 210 208 197 196 206 210 208 209 224 231 226 271 269 213 171 160 150 183 148 111 115 138 135 108 101 102 112 119 116 75 76 133 155 114 119 93 155 149 138 134 135 139 144 150 154 157 164 164 150
2 1 358 355 353 350 345 343 340 336 336 337 340 345 347 347 348 347 346 347 346 345 346 353 354 11 15 8 42 46 252 311 253 199 179 189 212 203 201 208 200 188 191 211 216 218 223 232 252 275 301 294 227 150 159 162 124 104 101 96 105 91 69 88 104 100 104 111 137 148 155 342 352 77 136 161 149 138 136 137 142 149 153 156 163 174 167 151
358 357 355 352 350 347 344 341 336 333 332 332 337 340 342 344 345 345 345 346 342 339 341 347 356 13 36 57 82 204 282 328 228 210 197 208 236 221 202 199 193 189 195 215 223 223 223 235 252 278 285 292 55 73 71 91 99 107 109 83 69 82 68 71 106 105 105 54 86 146 87 16 335 84 144 155 150 141 138 140 147 153 157 162 171 178 167 149
354 353 352 350 347 345 342 338 334 330 328 329 333 335 338 340 340 340 343 344 337 329 331 338 4 18 39 58 191 229 317 336 285 257 214 214 287 298 199 193 198 197 201 212 233 232 231 244 255 258 262 307 59 87 88 90 101 107 102 87 75 87 79 91 103 71 99 103 326 45 79 41 295 228 140 148 151 142 138 145 152 159 163 168 176 174 155 142
351 351 349 347 345 342 339 336 332 327 325 327 328 330 334 335 336 338 341 342 331 319 323 335 0 16 45 351 242 268 314 308 305 278 218 227 275 284 201 192 209 213 211 218 240 247 250 261 266 253 255 76 88 142 100 90 96 81 61 89 102 93 86 104 114 72 78 93 357 89 126 186 261 283 202 149 150 143 141 154 159 163 168 169 173 161 140 141
349 349 347 344 342 340 337 334 329 326 325 325 324 327 331 332 331 334 337 336 325 313 321 334 351 56 89 269 275 294 304 294 291 263 224 229 239 239 219 206 216 226 224 230 246 261 265 270 274 260 253 139 144 111 90 63 33 66 66 65 76 154 86 49 68 145 110 62 350 60 151 183 229 259 260 181 154 148 147 162 164 164 168 164 166 152 136 146
348 347 346 344 340 338 336 332 327 325 324 322 321 324 329 328 324 326 334 330 312 279 293 319 281 84 28 287 291 307 297 277 252 237 230 235 226 220 227 221 221 229 233 236 245 259 266 272 274 247 246 169 132 109 89 44 6 31 87 349 309 121 88 45 8 246 107 105 325 328 154 173 215 226 232 202 163 153 154 166 164 164 164 159 164 150 136 153
347 346 346 342 340 337 334 330 326 325 323 321 320 323 327 323 317 322 329 312 271 231 242 19 40 127 357 288 297 307 276 235 214 223 236 239 229 224 229 225 224 230 235 239 245 257 265 271 260 205 190 167 136 117 87 55 357 321 109 189 208 115 130 111 341 291 23 117 166 307 130 147 229 218 205 185 168 155 157 166 164 163 160 158 161 147 139 152
346 346 345 342 340 337 333 329 326 324 321 321 322 324 324 318 312 322 332 273 176 203 200 69 33 89 264 277 295 290 245 212 208 226 241 239 239 246 229 208 216 228 233 240 248 261 271 269 240 214 147 152 144 115 101 131 252 263 119 166 175 124 138 139 165 242 322 99 143 73 116 190 201 196 194 177 167 158 159 168 167 160 154 158 155 145 145 149
345 344 343 342 339 336 333 328 325 323 321 322 325 325 323 320 320 352 103 126 133 167 185 299 6 63 270 271 268 226 212 195 187 219 245 238 254 264 224 176 185 209 236 261 262 274 274 289 3 178 332 272 160 131 157 197 187 181 171 157 152 118 130 157 162 189 146 103 100 95 131 222 183 180 190 172 169 163 162 169 163 152 153 156 150 147 149 149
343 342 341 340 338 336 332 327 326 324 322 322 326 328 326 338 11 94 130 125 110 60 285 233 173 302 295 277 248 219 204 162 146 213 258 250 266 275 228 176 161 156 111 318 283 275 217 342 32 175 257 244 205 187 195 200 179 176 171 155 153 126 127 152 129 147 144 106 114 148 171 205 177 181 178 159 175 166 160 166 156 152 156 152 153 155 151 157
341 340 339 338 337 334 330 327 326 324 324 324 329 336 340 2 17 31 139 160 202 227 256 237 189 241 288 286 259 194 185 145 164 202 208 236 251 287 278 195 120 135 143 180 253 280 174 145 252 212 219 227 222 211 205 199 170 155 139 137 138 121 116 107 115 141 148 96 136 147 136 190 178 171 55 19 187 164 155 163 157 155 159 155 163 161 153 166
341 339 338 337 336 333 330 327 325 325 325 323 330 347 339 308 8 326 318 289 258 234 241 241 213 225 258 267 268 142 151 287 308 241 216 223 199 57 292 169 117 207 218 188 232 299 140 188 236 226 224 227 230 227 200 157 146 137 129 138 123 108 101 74 107 135 132 127 77 46 103 204 342 40 5 342 320 155 156 166 163 161 162 161 169 165 160 170
341 339 337 337 335 332 329 326 326 325 324 327 336 344 250 275 307 318 314 301 297 278 259 252 228 226 245 254 254 178 120 193 291 283 228 205 140 150 260 130 143 214 241 185 215 299 193 231 240 233 229 232 244 243 169 143 138 122 125 137 120 117 110 79 89 117 128 168 115 61 121 199 347 22 340 331 345 348 301 177 174 167 161 164 174 167 163 167
341 339 338 337 335 331 328 327 326 324 329 337 326 281 302 314 311 313 305 267 299 290 273 266 243 217 225 244 237 180 123 179 219 271 223 181 150 171 178 200 198 218 242 181 181 189 208 237 237 233 228 231 246 233 153 140 133 131 143 138 140 157 145 114 132 145 278 331 121 104 89 29 336 348 295 281 23 326 307 302 240 177 166 166 175 170 163 166
342 340 339 337 334 331 329 327 325 329 341 330 305 299 334 338 324 312 303 236 297 286 259 248 253 221 186 207 187 169 157 185 185 232 213 177 148 164 166 197 210 245 245 205 190 198 227 239 232 232 231 223 238 215 152 140 132 169 173 150 157 166 147 110 135 148 92 27 107 115 85 1 294 307 265 244 44 315 294 328 338 192 175 167 172 171 165 167
342 341 338 337 335 331 330 327 321 340 335 317 301 324 341 345 341 322 312 6 303 287 282 259 263 290 220 142 165 173 141 227 218 199 199 184 159 143 193 204 187 237 241 213 197 214 242 247 230 242 240 223 236 210 160 151 134 179 216 197 164 149 120 115 134 144 128 72 166 145 125 187 240 246 241 258 298 276 297 345 313 221 173 172 176 174 168 169
343 340 339 338 335 331 333 327 310 331 327 310 319 335 339 342 342 340 51 42 314 283 311 328 115 210 239 178 164 131 59 297 228 192 190 191 178 160 234 287 242 237 239 215 206 212 240 235 205 228 237 229 238 190 161 153 132 191 218 164 143 128 122 135 146 151 149 157 179 204 175 154 203 239 233 248 260 255 286 317 280 261 174 181 184 176 169 170
343 340 339 338 335 335 337 298 312 325 319 319 335 341 346 345 340 340 59 46 322 284 279 272 72 173 226 202 149 117 84 255 232 205 191 185 176 140 188 269 319 268 273 63 282 252 230 210 190 218 232 232 237 162 161 149 135 214 173 127 125 122 132 145 145 132 113 119 145 205 237 110 182 238 222 212 242 256 275 278 267 257 206 192 193 184 173 172
341 340 337 336 335 333 325 302 311 320 320 332 341 345 345 340 337 348 83 68 333 296 273 231 254 216 252 244 147 147 185 181 190 277 221 179 176 105 175 248 271 265 268 87 286 275 245 195 190 208 211 235 232 162 168 148 122 136 106 99 97 97 104 127 121 107 131 125 142 204 225 95 190 224 190 186 220 235 246 248 251 243 217 198 200 192 179 177
340 339 333 332 333 326 317 306 298 309 336 341 346 342 335 333 343 50 86 63 6 271 303 69 336 249 274 313 234 198 180 146 185 252 231 176 188 130 189 229 232 264 266 193 226 267 266 217 200 173 157 235 222 169 171 145 107 106 100 88 78 81 65 17 65 118 127 118 138 190 187 145 204 190 177 191 217 222 226 234 241 236 215 197 203 193 179 184
338 336 329 327 328 320 316 305 281 308 345 344 341 334 332 335 30 68 43 39 194 252 265 1 280 210 181 326 305 215 180 213 236 216 355 105 194 157 210 224 200 276 282 222 225 249 253 252 229 164 177 214 175 157 161 124 116 114 102 92 80 77 61 5 324 86 94 80 203 191 185 187 230 191 184 193 208 210 210 221 229 228 214 195 202 194 175 187
336 333 325 322 320 300 300 301 270 311 335 337 336 336 344 9 70 85 29 284 271 301 338 293 274 204 151 163 274 261 170 265 349 113 261 353 39 10 358 344 0 343 327 329 297 275 268 271 257 221 202 150 91 86 107 115 120 117 111 113 98 58 38 21 329 13 85 174 229 222 183 184 230 220 183 190 201 201 201 213 217 216 215 200 198 200 178 184
336 330 319 313 306 275 255 263 277 300 318 332 339 348 42 46 30 123 249 313 319 314 322 285 283 304 128 140 259 324 111 261 313 155 201 125 40 249 180 183 172 26 341 307 318 316 294 260 253 266 246 114 90 81 95 107 116 115 118 120 101 51 23 29 300 335 113 199 175 194 177 185 236 243 183 186 201 203 202 210 211 206 210 205 196 197 183 181
337 331 320 309 297 276 264 273 288 296 317 337 349 24 82 68 351 236 279 323 271 256 287 296 338 332 351 46 334 347 79 21 307 88 185 118 107 275 257 216 186 133 245 269 325 345 323 299 303 321 299 99 107 118 125 124 132 132 139 136 112 108 113 154 235 205 212 234 109 132 165 188 267 253 191 185 196 204 205 209 208 202 205 207 200 193 184 180
339 333 324 313 299 284 274 273 279 289 319 342 18 63 59 56 257 266 335 317 279 303 315 352 355 344 1 53 271 352 50 349 341 42 10 11 16 313 317 286 229 177 176 338 332 3 41 314 295 214 246 251 119 150 161 153 159 165 160 145 137 153 157 171 193 176 169 173 83 120 172 181 197 231 198 178 188 198 202 206 204 199 203 206 204 194 188 188
341 333 327 319 305 291 266 245 257 272 308 2 56 70 69 212 259 294 328 277 299 330 331 349 3 2 358 344 262 71 100 336 349 31 26 5 341 325 347 331 307 152 106 56 309 288 96 257 263 275 285 250 143 168 153 136 159 212 162 129 150 174 151 129 160 157 142 132 128 178 226 211 192 236 244 206 198 196 195 199 198 197 197 197 204 201 195 195
343 338 331 317 305 293 251 221 222 216 186 63 60 66 171 216 241 231 246 253 301 337 341 351 11 32 341 327 339 4 89 91 8 31 23 350 323 352 359 334 352 29 80 115 293 324 30 281 289 321 314 279 168 175 156 138 159 223 180 172 184 151 131 110 89 110 104 107 156 196 262 279 261 272 246 210 212 208 194 193 194 195 191 191 201 204 201 198
346 343 327 302 293 271 252 241 190 171 118 76 81 195 233 239 225 220 259 271 340 359 34 11 355 58 348 353 338 337 19 36 14 45 9 341 319 340 0 325 347 26 44 152 118 44 88 291 298 342 329 296 198 168 161 147 155 168 202 206 148 69 95 108 108 79 74 96 245 250 260 260 245 295 271 183 198 215 197 188 190 193 190 191 199 202 201 197
341 339 314 288 268 240 258 251 185 151 87 71 95 247 244 244 242 245 253 281 0 34 69 43 266 171 47 28 310 334 32 32 3 55 57 342 307 321 18 336 333 16 7 20 48 3 33 305 291 349 353 317 289 142 240 303 194 171 198 198 132 106 233 95 117 139 117 112 263 278 278 246 210 223 224 182 200 206 188 181 187 190 190 193 198 200 200 194
336 354 316 268 219 220 247 221 178 116 60 71 240 256 235 265 281 268 243 152 66 68 78 244 234 119 33 53 324 336 36 64 355 64 101 36 294 310 51 337 324 2 357 28 55 340 17 63 282 323 355 336 345 88 211 288 303 294 348 44 129 141 160 169 173 152 137 156 233 306 316 259 229 201 173 187 203 192 175 177 186 192 193 194 194 193 194 189
357 31 284 247 243 248 215 179 151 77 64 192 210 234 252 280 285 270 228 181 98 94 183 252 296 74 352 19 20 331 25 46 19 51 93 195 279 316 355 358 354 353 352 41 58 357 12 63 282 308 351 358 354 347 225 226 254 321 19 154 188 55 116 156 195 143 130 145 174 170 284 263 247 189 169 185 193 188 178 154 158 184 182 182 192 193 190 177
40 28 250 287 342 261 173 146 126 143 162 246 230 243 261 260 270 270 240 207 136 138 175 217 43 130 115 19 0 301 28 44 25 53 18 310 123 306 311 349 3 341 358 36 39 10 355 35 325 314 347 352 282 283 298 280 234 193 171 188 185 148 124 135 221 244 123 132 162 156 207 267 255 177 173 182 171 174 166 126 94 93 107 106 85 76 73 92
64 24 252 306 344 181 150 129 262 180 171 248 224 238 254 254 262 268 299 30 65 92 120 95 166 192 87 169 226 0 49 66 12 69 59 348 86 176 274 336 6 359 42 37 325 298 163 85 22 307 285 273 273 280 309 330 306 187 171 172 145 144 135 132 185 208 117 88 121 113 145 268 261 122 123 141 139 146 139 119 113 118 133 145 140 115 92 58
109 285 280 297 312 209 147 133 277 222 244 258 259 252 245 253 259 250 295 54 68 42 11 33 72 57 22 226 122 43 61 107 11 109 144 324 333 258 280 343 35 42 61 45 311 317 20 46 12 317 297 294 295 301 334 15 34 40 353 3 16 333 204 165 175 166 129 134 124 83 292 267 294 54 81 95 106 105 104 115 126 146 159 148 131 127 138 148
280 274 283 299 305 246 166 205 238 246 259 275 285 274 263 253 233 207 167 134 133 101 61 273 44 68 234 236 163 141 163 105 354 329 108 112 299 288 320 4 35 67 84 185 221 317 322 23 31 12 355 339 339 349 350 1 25 30 303 328 2 351 330 237 138 104 130 181 157 136 214 252 296 50 73 79 84 80 81 115 130 145 148 127 122 129 144 148
307 269 266 294 298 192 180 194 181 218 262 285 282 282 284 275 223 168 160 153 145 132 132 220 322 339 271 259 36 46 91 123 179 332 5 14 331 320 9 12 13 75 108 221 156 100 102 125 90 77 64 14 334 328 316 321 336 329 313 343 10 360 335 286 136 116 161 190 159 147 212 258 324 58 74 77 85 86 82 87 90 103 114 116 126 134 133 127
352 312 281 307 320 76 226 247 138 186 272 295 291 285 283 279 280 196 152 126 123 139 140 177 2 359 346 35 44 24 25 56 103 57 23 2 326 305 26 23 6 12 355 331 102 89 85 102 111 134 160 206 212 251 276 277 303 345 4 9 14 1 344 37 120 175 182 158 175 213 207 210 4 72 87 83 95 107 107 90 85 94 108 117 127 132 139 144
17 276 316 345 325 353 358 344 19 14 296 297 291 280 286 273 227 237 57 78 174 151 124 138 109 57 21 74 65 22 10 13 32 58 23 322 309 309 354 24 1 0 6 357 14 87 74 6 133 147 203 251 160 340 320 314 13 32 29 16 10 11 15 37 69 241 188 147 193 242 193 144 82 77 90 80 84 95 87 82 94 105 108 115 125 131 144 152
246 266 5 27 291 320 6 324 332 334 308 304 284 269 281 264 206 208 12 168 185 140 100 53 57 89 134 121 104 55 18 21 13 11 345 343 359 344 346 346 334 4 19 6 351 89 103 282 256 121 28 0 52 20 336 340 56 37 30 17 7 22 30 27 349 305 257 159 190 174 100 86 53 59 70 63 67 81 76 67 82 109 113 117 122 130 144 152
334 322 336 6 319 268 269 287 307 319 309 306 292 266 267 257 226 216 197 157 146 94 105 112 69 72 87 106 114 115 110 95 12 305 268 331 1 10 350 322 319 3 34 9 327 55 108 268 294 89 55 17 54 39 338 5 55 41 23 11 5 25 39 30 360 348 20 79 91 90 85 70 48 64 76 73 73 84 82 66 68 95 114 120 119 118 130 142
10 316 322 349 323 279 270 295 321 326 313 304 287 283 287 295 283 203 142 123 136 147 113 120 118 92 83 90 101 98 197 171 168 211 196 115 0 277 212 249 278 336 12 6 307 16 90 284 310 69 65 357 47 71 334 15 60 50 22 8 6 16 31 29 9 357 26 63 79 86 83 65 41 51 74 81 73 69 68 65 73 94 114 118 116 117 119 121
328 299 317 340 294 295 296 304 331 331 307 304 335 331 331 330 327 322 274 145 153 162 150 137 128 87 64 74 73 38 119 157 166 206 187 162 195 220 211 196 195 265 342 342 352 15 80 277 338 59 73 322 345 41 244 207 72 45 18 4 3 12 32 41 29 13 14 31 64 74 73 64 60 62 69 69 62 63 65 64 69 82 98 110 120 129 127 118
353 328 340 59 242 294 311 303 321 316 278 309 348 336 317 326 335 335 319 284 154 148 146 136 121 90 61 80 90 100 157 157 176 193 174 176 206 212 224 232 193 163 159 327 21 328 157 89 41 67 92 282 316 336 265 175 66 27 345 337 342 3 51 55 42 34 27 20 40 63 73 101 88 81 76 70 67 71 70 68 72 68 68 80 97 116 118 109